Time,TemperatureF,DewpointF,PressureIn,WindDirection,WindDirectionDegrees,WindSpeedMPH,WindSpeedGustMPH,Humidity,HourlyPrecipIn,Conditions,Clouds,dailyrainin,SoftwareType,DateUTC
2013-04-30 00:00:00,59.3,58.2,30.02,East,82,0.0,0.0,96,0.00,,,0.26,Wunderground v.1.15,2013-04-30 04:00:00,
2013-04-30 00:01:00,59.3,58.2,30.02,East,82,0.0,0.0,96,0.00,,,0.00,Wunderground v.1.15,2013-04-30 04:01:00,
2013-04-30 00:02:00,59.3,58.2,30.02,East,82,0.0,0.0,96,0.00,,,0.00,Wunderground v.1.15,2013-04-30 04:02:00,
2013-04-30 00:03:00,59.2,58.1,30.02,East,82,0.0,0.0,96,0.00,,,0.00,Wunderground v.1.15,2013-04-30 04:03:00,
2013-04-30 00:04:00,59.1,58.0,30.02,East,82,0.0,0.0,96,0.00,,,0.00,Wunderground v.1.15,2013-04-30 04:04:00,
2013-04-30 00:05:00,59.1,58.0,30.02,East,82,0.0,0.0,96,0.00,,,0.00,Wunderground v.1.15,2013-04-30 04:05:00,
2013-04-30 00:11:00,58.9,57.5,30.02,East,82,0.0,0.0,95,0.00,,,0.00,Wunderground v.1.15,2013-04-30 04:11:00,
2013-04-30 00:16:00,59.0,57.9,30.02,East,82,0.0,0.0,96,0.00,,,0.00,Wunderground v.1.15,2013-04-30 04:16:00,
2013-04-30 00:22:00,59.0,57.9,30.02,East,82,0.0,0.0,96,0.00,,,0.00,Wunderground v.1.15,2013-04-30 04:22:00,
2013-04-30 00:28:00,59.1,58.0,30.02,East,82,0.0,0.0,96,0.00,,,0.00,Wunderground v.1.15,2013-04-30 04:28:00,
2013-04-30 00:34:00,59.2,58.1,30.01,East,82,0.0,1.0,96,0.00,,,0.00,Wunderground v.1.15,2013-04-30 04:34:00,
2013-04-30 00:40:00,59.1,58.0,30.01,East,82,0.0,1.0,96,0.00,,,0.00,Wunderground v.1.15,2013-04-30 04:40:00,
2013-04-30 00:46:00,58.9,57.8,30.01,East,82,0.0,1.0,96,0.00,,,0.00,Wunderground v.1.15,2013-04-30 04:46:00,
2013-04-30 00:52:00,58.9,57.8,30.01,East,82,0.0,1.0,96,0.00,,,0.00,Wunderground v.1.15,2013-04-30 04:52:00,
2013-04-30 00:58:00,59.0,57.9,30.01,East,82,0.0,1.0,96,0.00,,,0.00,Wunderground v.1.15,2013-04-30 04:58:00,
2013-04-30 01:03:00,58.9,57.8,30.01,East,82,0.0,0.0,96,0.00,,,0.00,Wunderground v.1.15,2013-04-30 05:03:00,
2013-04-30 01:09:00,58.9,57.8,30.02,East,82,0.0,0.0,96,0.00,,,0.00,Wunderground v.1.15,2013-04-30 05:09:00,
2013-04-30 01:15:00,59.0,57.9,30.02,East,82,0.0,1.0,96,0.00,,,0.00,Wunderground v.1.15,2013-04-30 05:15:00,
2013-04-30 01:21:00,59.0,57.9,30.01,East,82,0.0,0.0,96,0.00,,,0.00,Wunderground v.1.15,2013-04-30 05:21:00,
2013-04-30 01:27:00,58.9,57.8,30.01,East,82,0.0,1.0,96,0.00,,,0.00,Wunderground v.1.15,2013-04-30 05:27:00,
2013-04-30 01:33:00,58.6,57.5,30.01,ENE,63,1.0,2.0,96,0.00,,,0.00,Wunderground v.1.15,2013-04-30 05:33:00,
2013-04-30 01:39:00,58.6,57.5,30.01,ENE,63,1.0,2.0,96,0.00,,,0.00,Wunderground v.1.15,2013-04-30 05:39:00,
2013-04-30 01:44:00,58.6,57.5,30.01,ENE,63,0.0,1.0,96,0.00,,,0.00,Wunderground v.1.15,2013-04-30 05:44:00,
2013-04-30 01:50:00,58.6,57.5,30.01,ENE,63,0.0,1.0,96,0.00,,,0.00,Wunderground v.1.15,2013-04-30 05:50:00,
2013-04-30 01:56:00,58.4,57.3,30.01,ENE,63,0.0,1.0,96,0.00,,,0.00,Wunderground v.1.15,2013-04-30 05:56:00,
2013-04-30 02:02:00,58.2,57.1,30.01,ENE,63,1.0,1.0,96,0.00,,,0.00,Wunderground v.1.15,2013-04-30 06:02:00,
2013-04-30 02:08:00,58.0,56.9,30.01,ENE,63,0.0,1.0,96,0.00,,,0.00,Wunderground v.1.15,2013-04-30 06:08:00,
2013-04-30 02:14:00,57.9,56.8,30.01,ENE,63,1.0,2.0,96,0.00,,,0.00,Wunderground v.1.15,2013-04-30 06:14:00,
2013-04-30 02:20:00,57.9,56.8,30.01,ENE,63,1.0,2.0,96,0.00,,,0.00,Wunderground v.1.15,2013-04-30 06:20:00,
2013-04-30 02:25:00,57.7,56.6,30.01,ENE,63,1.0,2.0,96,0.00,,,0.00,Wunderground v.1.15,2013-04-30 06:25:00,
2013-04-30 02:31:00,57.6,56.5,30.01,ENE,63,0.0,2.0,96,0.00,,,0.00,Wunderground v.1.15,2013-04-30 06:31:00,
2013-04-30 02:36:00,57.6,56.5,30.01,ENE,63,0.0,2.0,96,0.00,,,0.00,Wunderground v.1.15,2013-04-30 06:36:00,
2013-04-30 02:42:00,57.5,56.4,30.01,ENE,63,1.0,2.0,96,0.00,,,0.00,Wunderground v.1.15,2013-04-30 06:42:00,
2013-04-30 02:48:00,57.3,56.2,30.01,ENE,63,1.0,2.0,96,0.00,,,0.00,Wunderground v.1.15,2013-04-30 06:48:00,
2013-04-30 02:54:00,57.2,56.1,30.00,ENE,63,1.0,2.0,96,0.00,,,0.00,Wunderground v.1.15,2013-04-30 06:54:00,
2013-04-30 03:00:00,57.1,56.0,30.00,ENE,63,1.0,1.0,96,0.00,,,0.00,Wunderground v.1.15,2013-04-30 07:00:00,
2013-04-30 03:06:00,56.9,55.8,30.00,ENE,63,1.0,1.0,96,0.00,,,0.00,Wunderground v.1.15,2013-04-30 07:06:00,
2013-04-30 03:12:00,56.8,55.7,30.00,ENE,63,0.0,2.0,96,0.00,,,0.00,Wunderground v.1.15,2013-04-30 07:12:00,
2013-04-30 03:18:00,56.6,55.5,30.00,ENE,63,1.0,2.0,96,0.00,,,0.00,Wunderground v.1.15,2013-04-30 07:18:00,
2013-04-30 03:24:00,56.7,55.6,30.00,ENE,63,1.0,2.0,96,0.00,,,0.00,Wunderground v.1.15,2013-04-30 07:24:00,
2013-04-30 03:29:00,56.7,55.6,30.00,ENE,63,1.0,3.0,96,0.00,,,0.00,Wunderground v.1.15,2013-04-30 07:29:00,
2013-04-30 03:35:00,56.8,56.0,30.00,ENE,61,2.0,3.0,97,0.00,,,0.00,Wunderground v.1.15,2013-04-30 07:35:00,
2013-04-30 03:41:00,56.7,55.6,30.00,ENE,61,2.0,3.0,96,0.00,,,0.00,Wunderground v.1.15,2013-04-30 07:41:00,
2013-04-30 03:47:00,56.7,55.6,30.01,ENE,61,1.0,3.0,96,0.00,,,0.00,Wunderground v.1.15,2013-04-30 07:47:00,
2013-04-30 03:53:00,56.7,55.6,30.01,ENE,61,0.0,3.0,96,0.00,,,0.00,Wunderground v.1.15,2013-04-30 07:53:00,
2013-04-30 03:59:00,56.5,55.4,30.01,ENE,61,0.0,3.0,96,0.00,,,0.00,Wunderground v.1.15,2013-04-30 07:59:00,
2013-04-30 04:05:00,56.3,55.5,30.02,ENE,61,0.0,1.0,97,0.00,,,0.00,Wunderground v.1.15,2013-04-30 08:05:00,
2013-04-30 04:10:00,56.5,55.7,30.02,ENE,61,0.0,0.0,97,0.00,,,0.00,Wunderground v.1.15,2013-04-30 08:10:00,
2013-04-30 04:16:00,56.4,55.6,30.02,ENE,61,0.0,0.0,97,0.00,,,0.00,Wunderground v.1.15,2013-04-30 08:16:00,
2013-04-30 04:22:00,56.2,55.4,30.02,ENE,61,0.0,0.0,97,0.00,,,0.00,Wunderground v.1.15,2013-04-30 08:22:00,
2013-04-30 04:28:00,55.9,54.8,30.02,ENE,61,0.0,1.0,96,0.00,,,0.00,Wunderground v.1.15,2013-04-30 08:28:00,
2013-04-30 04:34:00,55.7,54.6,30.02,ENE,61,0.0,4.0,96,0.00,,,0.00,Wunderground v.1.15,2013-04-30 08:34:00,
2013-04-30 04:40:00,55.5,54.4,30.02,ENE,61,0.0,4.0,96,0.00,,,0.00,Wunderground v.1.15,2013-04-30 08:40:00,
2013-04-30 04:46:00,55.8,55.0,30.02,ENE,59,0.0,4.0,97,0.00,,,0.00,Wunderground v.1.15,2013-04-30 08:46:00,
2013-04-30 04:51:00,56.0,55.2,30.02,ENE,59,1.0,4.0,97,0.00,,,0.01,Wunderground v.1.15,2013-04-30 08:51:00,
2013-04-30 04:57:00,56.2,55.4,30.02,ENE,59,1.0,4.0,97,0.00,,,0.01,Wunderground v.1.15,2013-04-30 08:57:00,
2013-04-30 05:03:00,56.5,55.7,30.02,ENE,59,1.0,3.0,97,0.00,,,0.01,Wunderground v.1.15,2013-04-30 09:03:00,
2013-04-30 05:09:00,56.6,55.8,30.02,ENE,59,1.0,3.0,97,0.00,,,0.01,Wunderground v.1.15,2013-04-30 09:09:00,
2013-04-30 05:15:00,56.7,55.9,30.02,ENE,59,1.0,2.0,97,0.00,,,0.01,Wunderground v.1.15,2013-04-30 09:15:00,
2013-04-30 05:21:00,56.7,55.9,30.03,ENE,59,1.0,2.0,97,0.00,,,0.01,Wunderground v.1.15,2013-04-30 09:21:00,
2013-04-30 05:27:00,56.7,55.9,30.03,ENE,59,1.0,4.0,97,0.00,,,0.01,Wunderground v.1.15,2013-04-30 09:27:00,
2013-04-30 05:33:00,56.8,56.0,30.03,ENE,59,1.0,2.0,97,0.00,,,0.01,Wunderground v.1.15,2013-04-30 09:33:00,
2013-04-30 05:39:00,56.7,55.9,30.04,ENE,59,1.0,4.0,97,0.00,,,0.01,Wunderground v.1.15,2013-04-30 09:39:00,
2013-04-30 05:45:00,56.8,56.0,30.04,ENE,59,0.0,2.0,97,0.00,,,0.01,Wunderground v.1.15,2013-04-30 09:45:00,
2013-04-30 05:50:00,56.8,56.0,30.04,ENE,59,0.0,2.0,97,0.00,,,0.01,Wunderground v.1.15,2013-04-30 09:50:00,
2013-04-30 05:56:00,56.8,56.0,30.05,ENE,59,0.0,2.0,97,0.00,,,0.01,Wunderground v.1.15,2013-04-30 09:56:00,
2013-04-30 06:02:00,56.8,56.0,30.05,NNE,30,1.0,2.0,97,0.00,,,0.01,Wunderground v.1.15,2013-04-30 10:02:00,
2013-04-30 06:08:00,56.7,55.9,30.05,NNE,28,2.0,4.0,97,0.00,,,0.01,Wunderground v.1.15,2013-04-30 10:08:00,
2013-04-30 06:14:00,56.7,55.9,30.05,NE,45,2.0,2.0,97,0.00,,,0.01,Wunderground v.1.15,2013-04-30 10:14:00,
2013-04-30 06:20:00,56.7,55.9,30.05,NE,42,2.0,3.0,97,0.00,,,0.01,Wunderground v.1.15,2013-04-30 10:20:00,
2013-04-30 06:26:00,56.7,55.9,30.06,NE,44,2.0,3.0,97,0.00,,,0.01,Wunderground v.1.15,2013-04-30 10:26:00,
2013-04-30 06:32:00,56.7,55.9,30.06,NE,48,2.0,5.0,97,0.00,,,0.01,Wunderground v.1.15,2013-04-30 10:32:00,
2013-04-30 06:37:00,56.8,56.0,30.07,NE,49,2.0,5.0,97,0.00,,,0.01,Wunderground v.1.15,2013-04-30 10:37:00,
2013-04-30 06:43:00,56.8,56.0,30.07,North,5,2.0,5.0,97,0.00,,,0.01,Wunderground v.1.15,2013-04-30 10:43:00,
2013-04-30 06:49:00,56.9,56.1,30.07,ENE,62,2.0,5.0,97,0.00,,,0.01,Wunderground v.1.15,2013-04-30 10:49:00,
2013-04-30 06:55:00,56.9,56.1,30.07,ENE,62,2.0,5.0,97,0.00,,,0.01,Wunderground v.1.15,2013-04-30 10:55:00,
2013-04-30 07:00:00,57.0,56.4,30.08,NNE,21,2.0,3.0,98,0.00,,,0.01,Wunderground v.1.15,2013-04-30 11:00:00,
2013-04-30 07:06:00,57.1,56.5,30.08,NE,49,2.0,4.0,98,0.00,,,0.01,Wunderground v.1.15,2013-04-30 11:06:00,
2013-04-30 07:12:00,57.2,56.6,30.08,NE,49,1.0,2.0,98,0.00,,,0.01,Wunderground v.1.15,2013-04-30 11:12:00,
2013-04-30 07:17:00,57.2,56.6,30.09,NE,49,1.0,2.0,98,0.00,,,0.01,Wunderground v.1.15,2013-04-30 11:17:00,
2013-04-30 07:23:00,57.4,56.8,30.08,NE,48,1.0,1.0,98,0.00,,,0.01,Wunderground v.1.15,2013-04-30 11:23:00,
2013-04-30 07:29:00,57.4,56.8,30.09,NE,48,1.0,3.0,98,0.00,,,0.01,Wunderground v.1.15,2013-04-30 11:29:00,
2013-04-30 07:35:00,57.4,56.8,30.09,NE,50,2.0,6.0,98,0.00,,,0.01,Wunderground v.1.15,2013-04-30 11:35:00,
2013-04-30 07:41:00,57.4,56.8,30.09,North,5,2.0,6.0,98,0.00,,,0.01,Wunderground v.1.15,2013-04-30 11:41:00,
2013-04-30 07:47:00,57.4,56.8,30.10,NE,51,3.0,6.0,98,0.00,,,0.01,Wunderground v.1.15,2013-04-30 11:47:00,
2013-04-30 07:53:00,57.3,56.7,30.10,ENE,74,3.0,6.0,98,0.00,,,0.01,Wunderground v.1.15,2013-04-30 11:53:00,
2013-04-30 07:58:00,57.4,56.8,30.10,North,11,2.0,6.0,98,0.00,,,0.01,Wunderground v.1.15,2013-04-30 11:58:00,
2013-04-30 08:04:00,57.3,56.7,30.10,NNE,26,2.0,3.0,98,0.00,,,0.01,Wunderground v.1.15,2013-04-30 12:04:00,
2013-04-30 08:10:00,57.2,56.6,30.11,NNE,15,3.0,3.0,98,0.00,,,0.01,Wunderground v.1.15,2013-04-30 12:10:00,
2013-04-30 08:16:00,57.2,56.6,30.11,NNE,15,2.0,5.0,98,0.00,,,0.01,Wunderground v.1.15,2013-04-30 12:16:00,
2013-04-30 08:22:00,57.3,56.7,30.11,North,10,3.0,3.0,98,0.00,,,0.01,Wunderground v.1.15,2013-04-30 12:22:00,
2013-04-30 08:28:00,57.2,56.6,30.11,NE,44,2.0,4.0,98,0.00,,,0.01,Wunderground v.1.15,2013-04-30 12:28:00,
2013-04-30 08:34:00,57.2,56.6,30.11,North,9,2.0,4.0,98,0.00,,,0.01,Wunderground v.1.15,2013-04-30 12:34:00,
2013-04-30 08:39:00,57.2,56.6,30.11,North,360,3.0,5.0,98,0.00,,,0.01,Wunderground v.1.15,2013-04-30 12:39:00,
2013-04-30 08:45:00,57.1,56.5,30.11,NNE,18,4.0,6.0,98,0.00,,,0.01,Wunderground v.1.15,2013-04-30 12:45:00,
2013-04-30 08:51:00,57.0,56.4,30.12,NE,35,4.0,5.0,98,0.00,,,0.01,Wunderground v.1.15,2013-04-30 12:51:00,
2013-04-30 08:57:00,57.0,56.4,30.11,North,350,3.0,5.0,98,0.00,,,0.01,Wunderground v.1.15,2013-04-30 12:57:00,
2013-04-30 09:03:00,57.1,56.5,30.12,North,9,3.0,4.0,98,0.00,,,0.01,Wunderground v.1.15,2013-04-30 13:03:00,
2013-04-30 09:09:00,57.1,56.5,30.12,North,9,3.0,5.0,98,0.00,,,0.01,Wunderground v.1.15,2013-04-30 13:09:00,
2013-04-30 09:15:00,57.3,56.7,30.12,North,360,3.0,5.0,98,0.00,,,0.01,Wunderground v.1.15,2013-04-30 13:15:00,
2013-04-30 09:21:00,57.4,56.8,30.12,North,10,3.0,3.0,98,0.00,,,0.01,Wunderground v.1.15,2013-04-30 13:21:00,
2013-04-30 09:27:00,57.4,56.8,30.12,NE,38,3.0,5.0,98,0.00,,,0.01,Wunderground v.1.15,2013-04-30 13:27:00,
2013-04-30 09:32:00,57.6,57.0,30.12,NNE,32,3.0,7.0,98,0.00,,,0.01,Wunderground v.1.15,2013-04-30 13:32:00,
2013-04-30 09:38:00,57.6,57.0,30.12,NE,38,3.0,7.0,98,0.00,,,0.01,Wunderground v.1.15,2013-04-30 13:38:00,
2013-04-30 09:44:00,57.7,57.1,30.12,NNE,27,3.0,7.0,98,0.00,,,0.01,Wunderground v.1.15,2013-04-30 13:44:00,
2013-04-30 09:50:00,57.8,57.2,30.12,NE,43,2.0,7.0,98,0.00,,,0.01,Wunderground v.1.15,2013-04-30 13:50:00,
2013-04-30 09:56:00,57.8,57.2,30.12,NNE,26,3.0,7.0,98,0.00,,,0.01,Wunderground v.1.15,2013-04-30 13:56:00,
2013-04-30 10:02:00,57.8,57.2,30.12,NE,43,3.0,3.0,98,0.00,,,0.01,Wunderground v.1.15,2013-04-30 14:02:00,
2013-04-30 10:08:00,58.0,57.4,30.12,NNE,12,3.0,6.0,98,0.00,,,0.01,Wunderground v.1.15,2013-04-30 14:08:00,
2013-04-30 10:14:00,58.1,57.5,30.12,NNE,23,3.0,4.0,98,0.00,,,0.01,Wunderground v.1.15,2013-04-30 14:14:00,
2013-04-30 10:19:00,58.1,57.5,30.12,NNE,32,3.0,4.0,98,0.00,,,0.01,Wunderground v.1.15,2013-04-30 14:19:00,
2013-04-30 10:25:00,58.2,57.6,30.12,North,9,2.0,4.0,98,0.00,,,0.01,Wunderground v.1.15,2013-04-30 14:25:00,
2013-04-30 10:31:00,58.1,57.5,30.13,NNE,13,3.0,5.0,98,0.00,,,0.01,Wunderground v.1.15,2013-04-30 14:31:00,
2013-04-30 10:37:00,58.2,57.6,30.13,NE,55,3.0,9.0,98,0.00,,,0.01,Wunderground v.1.15,2013-04-30 14:37:00,
2013-04-30 10:43:00,58.4,57.8,30.13,NE,35,4.0,9.0,98,0.00,,,0.01,Wunderground v.1.15,2013-04-30 14:43:00,
2013-04-30 10:49:00,58.6,57.8,30.13,NE,43,3.0,9.0,97,0.00,,,0.01,Wunderground v.1.15,2013-04-30 14:49:00,
2013-04-30 10:55:00,58.7,57.9,30.13,NE,41,3.0,9.0,97,0.00,,,0.01,Wunderground v.1.15,2013-04-30 14:55:00,
2013-04-30 11:00:00,58.9,58.1,30.13,NE,37,4.0,4.0,97,0.00,,,0.01,Wunderground v.1.15,2013-04-30 15:00:00,
2013-04-30 11:05:00,59.0,58.2,30.13,NE,38,4.0,7.0,97,0.00,,,0.01,Wunderground v.1.15,2013-04-30 15:05:00,
2013-04-30 11:11:00,59.2,58.1,30.13,NNE,23,4.0,4.0,96,0.00,,,0.01,Wunderground v.1.15,2013-04-30 15:11:00,
2013-04-30 11:17:00,59.2,58.1,30.13,NNE,28,3.0,4.0,96,0.00,,,0.01,Wunderground v.1.15,2013-04-30 15:17:00,
2013-04-30 11:23:00,59.3,58.2,30.13,NE,51,3.0,4.0,96,0.00,,,0.01,Wunderground v.1.15,2013-04-30 15:23:00,
2013-04-30 11:29:00,59.5,58.4,30.13,ENE,75,3.0,5.0,96,0.00,,,0.01,Wunderground v.1.15,2013-04-30 15:29:00,
2013-04-30 11:35:00,59.8,58.4,30.13,ENE,59,3.0,9.0,95,0.00,,,0.01,Wunderground v.1.15,2013-04-30 15:35:00,
2013-04-30 11:41:00,60.1,58.4,30.13,WNW,298,4.0,9.0,94,0.00,,,0.01,Wunderground v.1.15,2013-04-30 15:41:00,
2013-04-30 11:46:00,60.2,58.5,30.13,NNE,26,4.0,9.0,94,0.00,,,0.01,Wunderground v.1.15,2013-04-30 15:46:00,
2013-04-30 11:52:00,60.2,58.5,30.12,NE,48,4.0,9.0,94,0.00,,,0.01,Wunderground v.1.15,2013-04-30 15:52:00,
2013-04-30 11:58:00,60.2,58.2,30.12,NNE,30,4.0,9.0,93,0.00,,,0.01,Wunderground v.1.15,2013-04-30 15:58:00,
2013-04-30 12:04:00,60.4,58.1,30.12,ENE,74,5.0,7.0,92,0.00,,,0.01,Wunderground v.1.15,2013-04-30 16:04:00,
2013-04-30 12:10:00,60.7,58.1,30.12,ENE,62,4.0,6.0,91,0.00,,,0.01,Wunderground v.1.15,2013-04-30 16:10:00,
2013-04-30 12:16:00,61.0,58.4,30.12,NE,46,4.0,7.0,91,0.00,,,0.01,Wunderground v.1.15,2013-04-30 16:16:00,
2013-04-30 12:22:00,61.3,58.7,30.12,NE,49,4.0,4.0,91,0.00,,,0.01,Wunderground v.1.15,2013-04-30 16:22:00,
2013-04-30 12:27:00,61.1,58.1,30.12,ENE,68,4.0,11.0,90,0.00,,,0.01,Wunderground v.1.15,2013-04-30 16:27:00,
2013-04-30 12:33:00,61.2,58.2,30.12,ENE,57,4.0,9.0,90,0.00,,,0.01,Wunderground v.1.15,2013-04-30 16:33:00,
2013-04-30 12:39:00,61.3,58.7,30.12,NE,49,3.0,9.0,91,0.00,,,0.01,Wunderground v.1.15,2013-04-30 16:39:00,
2013-04-30 12:45:00,61.6,58.6,30.12,North,360,3.0,9.0,90,0.00,,,0.01,Wunderground v.1.15,2013-04-30 16:45:00,
2013-04-30 12:51:00,61.6,58.3,30.12,ENE,58,3.0,9.0,89,0.00,,,0.01,Wunderground v.1.15,2013-04-30 16:51:00,
2013-04-30 12:57:00,61.6,58.3,30.12,NE,37,3.0,9.0,89,0.00,,,0.01,Wunderground v.1.15,2013-04-30 16:57:00,
2013-04-30 13:03:00,61.6,58.3,30.12,North,5,3.0,6.0,89,0.00,,,0.01,Wunderground v.1.15,2013-04-30 17:03:00,
2013-04-30 13:09:00,62.0,58.4,30.12,North,11,3.0,6.0,88,0.00,,,0.01,Wunderground v.1.15,2013-04-30 17:09:00,
2013-04-30 13:15:00,62.4,58.8,30.12,NE,34,3.0,4.0,88,0.00,,,0.01,Wunderground v.1.15,2013-04-30 17:15:00,
2013-04-30 13:20:00,62.8,58.9,30.12,NNE,19,3.0,3.0,87,0.00,,,0.01,Wunderground v.1.15,2013-04-30 17:20:00,
2013-04-30 13:26:00,63.3,59.4,30.11,NNE,33,4.0,9.0,87,0.00,,,0.01,Wunderground v.1.15,2013-04-30 17:26:00,
2013-04-30 13:32:00,63.4,59.8,30.11,North,355,4.0,12.0,88,0.00,,,0.01,Wunderground v.1.15,2013-04-30 17:32:00,
2013-04-30 13:38:00,64.0,59.1,30.11,NE,38,4.0,12.0,84,0.00,,,0.01,Wunderground v.1.15,2013-04-30 17:38:00,
2013-04-30 13:44:00,63.7,59.1,30.11,ENE,73,4.0,12.0,85,0.00,,,0.01,Wunderground v.1.15,2013-04-30 17:44:00,
2013-04-30 13:50:00,63.9,59.3,30.11,North,355,3.0,12.0,85,0.00,,,0.01,Wunderground v.1.15,2013-04-30 17:50:00,
2013-04-30 13:55:00,64.1,59.2,30.11,NNE,13,4.0,12.0,84,0.00,,,0.01,Wunderground v.1.15,2013-04-30 17:55:00,
2013-04-30 14:00:00,64.1,59.2,30.11,NNE,13,3.0,3.0,84,0.00,,,0.01,Wunderground v.1.15,2013-04-30 18:00:00,
2013-04-30 14:06:00,64.7,59.8,30.11,NNE,17,2.0,3.0,84,0.00,,,0.01,Wunderground v.1.15,2013-04-30 18:06:00,
2013-04-30 14:12:00,64.7,59.1,30.11,ENE,66,2.0,5.0,82,0.00,,,0.01,Wunderground v.1.15,2013-04-30 18:12:00,
2013-04-30 14:18:00,65.2,59.6,30.11,ENE,63,4.0,5.0,82,0.00,,,0.01,Wunderground v.1.15,2013-04-30 18:18:00,
2013-04-30 14:24:00,66.0,59.7,30.11,NE,51,4.0,8.0,80,0.00,,,0.01,Wunderground v.1.15,2013-04-30 18:24:00,
2013-04-30 14:30:00,66.4,59.3,30.11,NE,39,3.0,5.0,78,0.00,,,0.01,Wunderground v.1.15,2013-04-30 18:30:00,
2013-04-30 14:35:00,66.2,59.5,30.11,NE,40,3.0,10.0,79,0.00,,,0.01,Wunderground v.1.15,2013-04-30 18:35:00,
2013-04-30 14:41:00,65.8,59.1,30.11,NE,43,4.0,10.0,79,0.00,,,0.01,Wunderground v.1.15,2013-04-30 18:41:00,
2013-04-30 14:47:00,65.8,59.5,30.11,NNE,13,3.0,10.0,80,0.00,,,0.01,Wunderground v.1.15,2013-04-30 18:47:00,
2013-04-30 14:53:00,65.7,59.4,30.11,North,5,4.0,10.0,80,0.00,,,0.01,Wunderground v.1.15,2013-04-30 18:53:00,
2013-04-30 14:59:00,65.6,59.6,30.11,NNE,33,5.0,10.0,81,0.00,,,0.01,Wunderground v.1.15,2013-04-30 18:59:00,
2013-04-30 15:05:00,65.2,58.9,30.11,North,360,5.0,8.0,80,0.00,,,0.01,Wunderground v.1.15,2013-04-30 19:05:00,
2013-04-30 15:11:00,65.1,59.1,30.11,North,355,4.0,4.0,81,0.00,,,0.01,Wunderground v.1.15,2013-04-30 19:11:00,
2013-04-30 15:17:00,65.2,58.5,30.11,ENE,69,5.0,11.0,79,0.00,,,0.01,Wunderground v.1.15,2013-04-30 19:17:00,
2013-04-30 15:23:00,65.3,58.6,30.11,NE,52,4.0,5.0,79,0.00,,,0.01,Wunderground v.1.15,2013-04-30 19:23:00,
2013-04-30 15:28:00,65.3,58.6,30.11,ENE,59,3.0,6.0,79,0.00,,,0.01,Wunderground v.1.15,2013-04-30 19:28:00,
2013-04-30 15:34:00,65.2,58.9,30.11,NE,53,3.0,9.0,80,0.00,,,0.01,Wunderground v.1.15,2013-04-30 19:34:00,
2013-04-30 15:40:00,65.6,58.9,30.11,NE,54,4.0,9.0,79,0.00,,,0.01,Wunderground v.1.15,2013-04-30 19:40:00,
2013-04-30 15:46:00,65.5,59.2,30.10,North,9,4.0,9.0,80,0.00,,,0.01,Wunderground v.1.15,2013-04-30 19:46:00,
2013-04-30 15:52:00,65.6,59.3,30.10,NE,40,4.0,9.0,80,0.00,,,0.01,Wunderground v.1.15,2013-04-30 19:52:00,
2013-04-30 15:58:00,65.7,59.0,30.11,North,9,3.0,9.0,79,0.00,,,0.01,Wunderground v.1.15,2013-04-30 19:58:00,
2013-04-30 16:04:00,65.4,58.4,30.11,North,360,4.0,4.0,78,0.00,,,0.01,Wunderground v.1.15,2013-04-30 20:04:00,
2013-04-30 16:10:00,65.3,59.0,30.10,NNE,17,3.0,3.0,80,0.00,,,0.01,Wunderground v.1.15,2013-04-30 20:10:00,
2013-04-30 16:15:00,65.2,58.9,30.10,NE,55,3.0,9.0,80,0.00,,,0.01,Wunderground v.1.15,2013-04-30 20:15:00,
2013-04-30 16:21:00,65.2,58.5,30.11,NE,42,4.0,5.0,79,0.00,,,0.01,Wunderground v.1.15,2013-04-30 20:21:00,
2013-04-30 16:27:00,65.1,58.4,30.11,ENE,57,4.0,6.0,79,0.00,,,0.01,Wunderground v.1.15,2013-04-30 20:27:00,
2013-04-30 16:33:00,65.0,58.3,30.11,NE,49,4.0,11.0,79,0.00,,,0.01,Wunderground v.1.15,2013-04-30 20:33:00,
2013-04-30 16:39:00,64.8,58.5,30.11,North,5,3.0,11.0,80,0.00,,,0.01,Wunderground v.1.15,2013-04-30 20:39:00,
2013-04-30 16:45:00,64.5,58.9,30.11,NE,37,4.0,11.0,82,0.00,,,0.01,Wunderground v.1.15,2013-04-30 20:45:00,
2013-04-30 16:51:00,64.4,58.8,30.11,North,11,3.0,11.0,82,0.00,,,0.01,Wunderground v.1.15,2013-04-30 20:51:00,
2013-04-30 16:56:00,64.5,59.2,30.11,North,11,3.0,11.0,83,0.00,,,0.01,Wunderground v.1.15,2013-04-30 20:56:00,
2013-04-30 17:02:00,64.7,59.1,30.12,NNE,15,2.0,3.0,82,0.00,,,0.01,Wunderground v.1.15,2013-04-30 21:02:00,
2013-04-30 17:08:00,65.0,59.4,30.12,NE,36,3.0,5.0,82,0.00,,,0.01,Wunderground v.1.15,2013-04-30 21:08:00,
2013-04-30 17:14:00,65.0,59.0,30.12,NE,36,2.0,4.0,81,0.00,,,0.01,Wunderground v.1.15,2013-04-30 21:14:00,
2013-04-30 17:20:00,64.8,58.8,30.12,NE,39,2.0,3.0,81,0.00,,,0.01,Wunderground v.1.15,2013-04-30 21:20:00,
2013-04-30 17:26:00,64.3,58.7,30.12,NNE,12,3.0,5.0,82,0.00,,,0.01,Wunderground v.1.15,2013-04-30 21:26:00,
2013-04-30 17:32:00,64.0,58.4,30.12,North,5,4.0,10.0,82,0.00,,,0.01,Wunderground v.1.15,2013-04-30 21:32:00,
2013-04-30 17:38:00,63.8,58.2,30.12,NNE,28,5.0,11.0,82,0.00,,,0.01,Wunderground v.1.15,2013-04-30 21:38:00,
2013-04-30 17:44:00,63.8,58.5,30.13,NE,45,3.0,11.0,83,0.00,,,0.01,Wunderground v.1.15,2013-04-30 21:44:00,
2013-04-30 17:49:00,64.0,58.7,30.13,NE,44,3.0,11.0,83,0.00,,,0.01,Wunderground v.1.15,2013-04-30 21:49:00,
2013-04-30 17:55:00,64.0,58.4,30.13,NE,43,4.0,11.0,82,0.00,,,0.01,Wunderground v.1.15,2013-04-30 21:55:00,
2013-04-30 18:00:00,64.0,58.7,30.13,NNE,25,4.0,4.0,83,0.00,,,0.01,Wunderground v.1.15,2013-04-30 22:00:00,
2013-04-30 18:06:00,63.9,58.6,30.13,ENE,57,3.0,4.0,83,0.00,,,0.01,Wunderground v.1.15,2013-04-30 22:06:00,
2013-04-30 18:12:00,63.8,58.5,30.14,NNE,12,3.0,6.0,83,0.00,,,0.01,Wunderground v.1.15,2013-04-30 22:12:00,
2013-04-30 18:18:00,63.6,58.3,30.13,North,5,4.0,7.0,83,0.00,,,0.01,Wunderground v.1.15,2013-04-30 22:18:00,
2013-04-30 18:23:00,63.4,58.1,30.14,NE,53,4.0,6.0,83,0.00,,,0.01,Wunderground v.1.15,2013-04-30 22:23:00,
2013-04-30 18:29:00,63.2,57.6,30.14,NNE,13,5.0,8.0,82,0.00,,,0.01,Wunderground v.1.15,2013-04-30 22:29:00,
2013-04-30 18:35:00,63.2,57.9,30.14,North,11,5.0,10.0,83,0.00,,,0.01,Wunderground v.1.15,2013-04-30 22:35:00,
2013-04-30 18:41:00,63.2,57.9,30.14,NE,42,4.0,10.0,83,0.00,,,0.01,Wunderground v.1.15,2013-04-30 22:41:00,
2013-04-30 18:47:00,63.1,57.5,30.14,NE,40,4.0,10.0,82,0.00,,,0.01,Wunderground v.1.15,2013-04-30 22:47:00,
2013-04-30 18:53:00,63.0,57.8,30.14,NE,39,4.0,10.0,83,0.00,,,0.01,Wunderground v.1.15,2013-04-30 22:53:00,
2013-04-30 18:59:00,62.8,57.6,30.15,NE,40,4.0,10.0,83,0.00,,,0.01,Wunderground v.1.15,2013-04-30 22:59:00,
2013-04-30 19:05:00,62.6,57.4,30.15,NE,38,4.0,5.0,83,0.00,,,0.01,Wunderground v.1.15,2013-04-30 23:05:00,
2013-04-30 19:10:00,62.5,57.3,30.15,NNE,23,3.0,3.0,83,0.00,,,0.01,Wunderground v.1.15,2013-04-30 23:10:00,
2013-04-30 19:16:00,62.5,57.6,30.15,NE,34,3.0,4.0,84,0.00,,,0.01,Wunderground v.1.15,2013-04-30 23:16:00,
2013-04-30 19:22:00,62.4,57.5,30.15,NE,54,2.0,2.0,84,0.00,,,0.01,Wunderground v.1.15,2013-04-30 23:22:00,
2013-04-30 19:28:00,62.3,57.7,30.15,NE,54,1.0,2.0,85,0.00,,,0.01,Wunderground v.1.15,2013-04-30 23:28:00,
2013-04-30 19:34:00,62.1,57.5,30.16,NE,54,1.0,12.0,85,0.00,,,0.01,Wunderground v.1.15,2013-04-30 23:34:00,
2013-04-30 19:40:00,62.0,57.4,30.16,ENE,63,1.0,12.0,85,0.00,,,0.01,Wunderground v.1.15,2013-04-30 23:40:00,
2013-04-30 19:46:00,61.9,57.7,30.16,ENE,60,1.0,12.0,86,0.00,,,0.01,Wunderground v.1.15,2013-04-30 23:46:00,
2013-04-30 19:51:00,61.7,57.5,30.16,ENE,60,1.0,12.0,86,0.00,,,0.01,Wunderground v.1.15,2013-04-30 23:51:00,
2013-04-30 19:57:00,61.5,57.3,30.16,North,5,0.0,12.0,86,0.00,,,0.01,Wunderground v.1.15,2013-04-30 23:57:00,
2013-04-30 20:03:00,61.3,57.1,30.16,North,9,2.0,4.0,86,0.00,,,0.01,Wunderground v.1.15,2013-05-01 00:03:00,
2013-04-30 20:09:00,61.1,56.6,30.16,NNE,31,2.0,4.0,85,0.00,,,0.01,Wunderground v.1.15,2013-05-01 00:09:00,
2013-04-30 20:15:00,60.9,56.0,30.17,North,5,2.0,3.0,84,0.00,,,0.01,Wunderground v.1.15,2013-05-01 00:15:00,
2013-04-30 20:21:00,60.6,55.7,30.17,North,5,0.0,1.0,84,0.00,,,0.01,Wunderground v.1.15,2013-05-01 00:21:00,
2013-04-30 20:27:00,60.2,55.7,30.17,North,5,0.0,1.0,85,0.00,,,0.01,Wunderground v.1.15,2013-05-01 00:27:00,
2013-04-30 20:33:00,59.6,55.4,30.17,North,5,0.0,10.0,86,0.00,,,0.01,Wunderground v.1.15,2013-05-01 00:33:00,
2013-04-30 20:39:00,59.1,55.2,30.17,North,5,0.0,10.0,87,0.00,,,0.01,Wunderground v.1.15,2013-05-01 00:39:00,
2013-04-30 20:44:00,58.6,54.7,30.17,North,5,0.0,10.0,87,0.00,,,0.01,Wunderground v.1.15,2013-05-01 00:44:00,
2013-04-30 20:50:00,58.0,54.8,30.17,North,5,0.0,10.0,89,0.00,,,0.01,Wunderground v.1.15,2013-05-01 00:50:00,
2013-04-30 20:56:00,57.6,54.4,30.17,North,5,0.0,10.0,89,0.00,,,0.01,Wunderground v.1.15,2013-05-01 00:56:00,
2013-04-30 21:02:00,57.2,54.3,30.17,North,5,0.0,0.0,90,0.00,,,0.01,Wunderground v.1.15,2013-05-01 01:02:00,
2013-04-30 21:08:00,56.8,53.9,30.17,North,5,0.0,0.0,90,0.00,,,0.01,Wunderground v.1.15,2013-05-01 01:08:00,
2013-04-30 21:14:00,56.6,54.0,30.17,North,5,0.0,0.0,91,0.00,,,0.01,Wunderground v.1.15,2013-05-01 01:14:00,
2013-04-30 21:20:00,56.4,54.1,30.18,North,5,0.0,0.0,92,0.00,,,0.01,Wunderground v.1.15,2013-05-01 01:20:00,
2013-04-30 21:25:00,56.3,54.0,30.18,North,5,0.0,0.0,92,0.00,,,0.01,Wunderground v.1.15,2013-05-01 01:25:00,
2013-04-30 21:31:00,55.9,53.6,30.18,North,5,0.0,5.0,92,0.00,,,0.01,Wunderground v.1.15,2013-05-01 01:31:00,
2013-04-30 21:37:00,55.7,53.4,30.18,North,5,0.0,5.0,92,0.00,,,0.01,Wunderground v.1.15,2013-05-01 01:37:00,
2013-04-30 21:43:00,55.5,53.2,30.18,North,5,0.0,5.0,92,0.00,,,0.01,Wunderground v.1.15,2013-05-01 01:43:00,
2013-04-30 21:49:00,55.9,54.2,30.18,North,5,0.0,5.0,94,0.00,,,0.01,Wunderground v.1.15,2013-05-01 01:49:00,
2013-04-30 21:55:00,56.3,54.3,30.19,North,5,1.0,5.0,93,0.00,,,0.01,Wunderground v.1.15,2013-05-01 01:55:00,
2013-04-30 22:00:00,56.6,54.6,30.19,North,5,1.0,1.0,93,0.00,,,0.01,Wunderground v.1.15,2013-05-01 02:00:00,
2013-04-30 22:06:00,56.6,54.3,30.19,North,5,1.0,2.0,92,0.00,,,0.01,Wunderground v.1.15,2013-05-01 02:06:00,
2013-04-30 22:11:00,56.7,54.4,30.19,North,360,2.0,3.0,92,0.00,,,0.01,Wunderground v.1.15,2013-05-01 02:11:00,
2013-04-30 22:17:00,56.7,54.4,30.19,North,360,2.0,3.0,92,0.00,,,0.01,Wunderground v.1.15,2013-05-01 02:17:00,
2013-04-30 22:23:00,56.7,54.4,30.19,North,360,2.0,2.0,92,0.00,,,0.01,Wunderground v.1.15,2013-05-01 02:23:00,
2013-04-30 22:29:00,56.7,54.4,30.19,North,360,1.0,3.0,92,0.00,,,0.01,Wunderground v.1.15,2013-05-01 02:29:00,
2013-04-30 22:35:00,56.5,54.2,30.18,North,360,1.0,3.0,92,0.00,,,0.01,Wunderground v.1.15,2013-05-01 02:35:00,
2013-04-30 22:41:00,56.5,54.5,30.18,North,9,1.0,2.0,93,0.00,,,0.01,Wunderground v.1.15,2013-05-01 02:41:00,
2013-04-30 22:47:00,56.5,54.5,30.18,North,9,1.0,2.0,93,0.00,,,0.01,Wunderground v.1.15,2013-05-01 02:47:00,
2013-04-30 22:52:00,56.5,54.5,30.18,North,9,1.0,2.0,93,0.00,,,0.01,Wunderground v.1.15,2013-05-01 02:52:00,
2013-04-30 22:58:00,56.5,54.2,30.17,NE,39,2.0,3.0,92,0.00,,,0.01,Wunderground v.1.15,2013-05-01 02:58:00,
2013-04-30 23:04:00,56.6,54.3,30.18,NNE,17,2.0,2.0,92,0.00,,,0.01,Wunderground v.1.15,2013-05-01 03:04:00,
2013-04-30 23:10:00,56.5,54.2,30.17,NNE,13,2.0,2.0,92,0.00,,,0.01,Wunderground v.1.15,2013-05-01 03:10:00,
2013-04-30 23:16:00,56.6,54.3,30.18,NNE,14,2.0,3.0,92,0.00,,,0.01,Wunderground v.1.15,2013-05-01 03:16:00,
2013-04-30 23:22:00,56.6,54.3,30.18,NNE,14,2.0,5.0,92,0.00,,,0.01,Wunderground v.1.15,2013-05-01 03:22:00,
2013-04-30 23:28:00,56.6,54.3,30.18,NNE,22,2.0,5.0,92,0.00,,,0.01,Wunderground v.1.15,2013-05-01 03:28:00,
2013-04-30 23:34:00,56.5,54.2,30.18,NNE,12,2.0,5.0,92,0.00,,,0.01,Wunderground v.1.15,2013-05-01 03:34:00,
2013-04-30 23:40:00,56.6,54.3,30.18,NNE,13,2.0,5.0,92,0.00,,,0.01,Wunderground v.1.15,2013-05-01 03:40:00,
2013-04-30 23:45:00,56.7,54.4,30.18,North,5,3.0,5.0,92,0.00,,,0.01,Wunderground v.1.15,2013-05-01 03:45:00,
2013-04-30 23:51:00,56.6,54.3,30.18,NNE,12,2.0,5.0,92,0.00,,,0.01,Wunderground v.1.15,2013-05-01 03:51:00,
2013-04-30 23:57:00,56.4,54.1,30.18,NNE,22,2.0,5.0,92,0.00,,,0.01,Wunderground v.1.15,2013-05-01 03:57:00,